Temp
-14 -14 -15 -15 -15 -15 -15 -15 -15 -13 -12 -12 -13 -12 -12 -13 -12 -12 -12 -12 -11 -11 -12 -12 -11 -11 -11 -11 -11 -11 -11 -11 -11 -11 -11 -12 -12 -12 -12 -12 -12 -12 -11 -12 -12 -12 -12 -12 -12
-15 -15 -15 -16 -15 -16 -15 -15 -15 -13 -13 -11 -12 -12 -12 -12 -12 -12 -11 -12 -12 -12 -12 -12 -11 -11 -11 -11 -11 -11 -11 -11 -11 -11 -11 -11 -12 -12 -12 -12 -12 -12 -12 -12 -12 -12 -12 -12 -12
-15 -15 -16 -16 -16 -16 -15 -15 -13 -12 -12 -13 -13 -12 -12 -12 -12 -12 -12 -12 -12 -12 -12 -12 -11 -11 -12 -11 -11 -10 -11 -11 -11 -11 -12 -12 -12 -13 -13 -13 -13 -13 -13 -13 -13 -13 -13 -12 -12
-16 -16 -16 -16 -16 -15 -15 -14 -13 -13 -13 -12 -12 -13 -12 -12 -12 -12 -12 -12 -12 -12 -11 -11 -11 -11 -11 -11 -11 -11 -11 -11 -11 -12 -12 -12 -13 -14 -14 -13 -13 -13 -13 -13 -13 -13 -13 -13 -13
-16 -17 -16 -16 -16 -16 -15 -14 -14 -14 -13 -13 -13 -13 -13 -13 -12 -12 -12 -12 -11 -11 -11 -12 -11 -12 -11 -11 -10 -11 -11 -10 -11 -11 -11 -12 -14 -14 -14 -14 -13 -13 -13 -13 -13 -13 -13 -13 -12
-17 -17 -16 -16 -16 -16 -15 -15 -15 -14 -13 -13 -13 -13 -12 -12 -12 -12 -12 -11 -12 -11 -11 -12 -12 -11 -11 -11 -11 -11 -10 -11 -11 -11 -12 -13 -16 -15 -15 -14 -14 -14 -13 -13 -13 -12 -12 -13 -12
-17 -17 -16 -16 -16 -16 -16 -15 -15 -14 -14 -14 -13 -13 -13 -12 -12 -12 -11 -12 -11 -12 -12 -12 -11 -11 -11 -11 -11 -10 -11 -11 -12 -12 -13 -16 -16 -16 -15 -14 -14 -13 -13 -13 -12 -12 -13 -12 -12
-17 -16 -16 -16 -16 -16 -16 -16 -15 -15 -14 -14 -13 -12 -12 -12 -12 -12 -12 -12 -12 -12 -12 -11 -11 -10 -11 -11 -11 -11 -11 -11 -12 -13 -14 -15 -17 -16 -14 -14 -14 -13 -13 -13 -13 -13 -13 -13 -12
-17 -16 -16 -16 -16 -16 -16 -16 -15 -15 -14 -14 -13 -13 -12 -12 -12 -12 -12 -12 -12 -12 -12 -12 -11 -11 -11 -11 -11 -11 -12 -12 -13 -14 -15 -17 -16 -15 -14 -14 -13 -13 -14 -14 -13 -13 -13 -13 -13
-17 -16 -16 -16 -16 -16 -16 -16 -15 -15 -14 -14 -13 -13 -12 -12 -12 -12 -12 -12 -12 -12 -12 -11 -10 -11 -11 -11 -11 -11 -12 -13 -14 -15 -17 -17 -15 -14 -14 -13 -13 -14 -14 -14 -14 -13 -14 -14 -13
-17 -16 -16 -16 -17 -16 -16 -15 -15 -15 -14 -14 -13 -12 -12 -12 -12 -12 -12 -12 -12 -12 -13 -12 -11 -11 -12 -11 -11 -11 -12 -14 -15 -16 -16 -15 -15 -14 -13 -13 -14 -14 -14 -14 -14 -14 -14 -14 -14
-17 -17 -16 -16 -16 -16 -16 -16 -15 -15 -14 -14 -13 -12 -13 -13 -12 -12 -12 -11 -13 -11 -11 -11 -11 -12 -12 -12 -12 -13 -14 -15 -16 -15 -15 -14 -14 -14 -14 -14 -14 -14 -14 -14 -13 -14 -14 -14 -14
-17 -17 -17 -16 -16 -16 -16 -15 -15 -14 -14 -13 -12 -12 -12 -12 -12 -12 -13 -12 -12 -12 -12 -12 -12 -12 -12 -12 -14 -15 -16 -16 -15 -15 -14 -14 -14 -15 -14 -14 -14 -14 -14 -14 -14 -14 -14 -14 -14
-17 -17 -17 -16 -15 -15 -15 -15 -14 -14 -14 -13 -13 -13 -13 -13 -13 -13 -13 -13 -12 -13 -13 -12 -13 -13 -13 -15 -15 -15 -15 -15 -15 -14 -14 -14 -14 -14 -14 -14 -13 -14 -14 -14 -14 -14 -15 -15 -15
-17 -17 -17 -17 -16 -16 -15 -15 -15 -15 -14 -13 -13 -13 -13 -12 -13 -13 -13 -13 -13 -13 -13 -15 -15 -14 -14 -14 -14 -14 -14 -14 -14 -14 -14 -14 -14 -14 -14 -14 -14 -14 -14 -15 -15 -15 -15 -15 -15
-17 -17 -17 -17 -16 -16 -16 -16 -16 -16 -16 -15 -14 -13 -14 -14 -13 -13 -15 -15 -15 -16 -16 -15 -14 -14 -15 -14 -14 -14 -14 -14 -14 -14 -14 -14 -14 -14 -14 -14 -14 -15 -14 -15 -15 -15 -15 -15 -15
-17 -17 -17 -17 -17 -16 -16 -16 -16 -16 -16 -16 -17 -16 -16 -17 -15 -16 -15 -16 -15 -15 -16 -15 -15 -14 -14 -14 -14 -14 -14 -15 -15 -14 -14 -14 -14 -14 -14 -14 -14 -14 -15 -15 -15 -15 -15 -15 -16
-18 -18 -17 -17 -17 -16 -16 -16 -16 -16 -16 -16 -16 -16 -16 -16 -16 -16 -15 -15 -15 -15 -15 -15 -14 -14 -14 -14 -15 -15 -15 -15 -15 -14 -14 -14 -14 -14 -14 -14 -14 -15 -15 -15 -15 -15 -16 -16 -16
-17 -17 -16 -16 -17 -16 -16 -16 -16 -16 -16 -16 -16 -15 -16 -16 -15 -15 -15 -14 -14 -14 -14 -14 -14 -14 -14 -15 -15 -15 -15 -15 -15 -15 -14 -14 -14 -14 -14 -14 -14 -15 -15 -15 -15 -16 -16 -16 -17
-17 -17 -17 -17 -16 -16 -16 -16 -16 -16 -16 -16 -16 -16 -15 -15 -16 -15 -15 -15 -15 -14 -15 -15 -15 -15 -15 -15 -15 -15 -15 -15 -15 -14 -14 -14 -14 -14 -14 -15 -15 -15 -15 -15 -16 -16 -16 -17 -17
-16 -16 -17 -16 -16 -16 -16 -15 -16 -16 -16 -16 -16 -16 -16 -16 -16 -16 -15 -15 -15 -15 -15 -15 -15 -15 -15 -15 -15 -15 -15 -15 -15 -14 -14 -14 -14 -15 -15 -15 -15 -15 -16 -16 -16 -16 -17 -17 -18
-15 -15 -16 -15 -16 -16 -16 -16 -15 -16 -16 -15 -16 -16 -16 -16 -16 -16 -15 -15 -15 -15 -15 -15 -15 -15 -15 -15 -15 -15 -15 -15 -15 -15 -15 -15 -15 -15 -15 -15 -15 -15 -16 -16 -17 -18 -18 -18 -19
-15 -15 -15 -15 -15 -15 -16 -16 -15 -15 -15 -15 -15 -15 -15 -15 -16 -16 -16 -16 -16 -15 -15 -15 -15 -15 -15 -15 -15 -15 -15 -15 -15 -15 -15 -15 -15 -15 -15 -15 -16 -16 -17 -17 -18 -18 -18 -18 -18
-15 -15 -15 -15 -15 -14 -15 -15 -15 -15 -15 -15 -14 -15 -15 -15 -15 -16 -15 -15 -15 -15 -15 -15 -15 -15 -15 -15 -15 -15 -15 -15 -15 -15 -15 -15 -15 -16 -16 -16 -16 -16 -17 -18 -18 -18 -18 -18 -19
-15 -15 -15 -15 -15 -14 -15 -15 -15 -16 -15 -15 -14 -15 -15 -15 -15 -15 -15 -15 -15 -15 -15 -16 -16 -16 -16 -15 -16 -16 -15 -15 -15 -15 -15 -15 -16 -16 -16 -16 -17 -18 -18 -18 -18 -18 -19 -19 -19
-16 -15 -16 -16 -15 -15 -15 -14 -15 -16 -15 -15 -15 -14 -15 -15 -15 -15 -14 -15 -15 -15 -15 -16 -16 -15 -15 -16 -16 -15 -15 -15 -15 -15 -15 -16 -16 -16 -17 -17 -18 -19 -19 -19 -19 -19 -19 -19 -20
-15 -15 -16 -16 -16 -16 -15 -15 -15 -15 -15 -15 -15 -15 -15 -15 -15 -15 -15 -15 -15 -15 -15 -16 -15 -15 -15 -15 -15 -15 -15 -16 -15 -15 -16 -17 -17 -17 -18 -19 -19 -19 -19 -19 -19 -19 -19 -19 -20
-16 -16 -16 -16 -16 -16 -15 -15 -15 -16 -16 -15 -15 -15 -15 -15 -15 -15 -15 -15 -15 -15 -15 -15 -15 -16 -15 -15 -16 -16 -16 -15 -15 -16 -16 -16 -16 -17 -19 -19 -18 -19 -19 -19 -19 -19 -20 -20 -21
-17 -17 -16 -16 -15 -15 -15 -15 -16 -16 -16 -15 -15 -15 -15 -15 -15 -16 -15 -15 -16 -15 -16 -16 -16 -16 -16 -16 -16 -16 -16 -16 -17 -17 -17 -17 -17 -18 -19 -19 -19 -19 -19 -19 -20 -20 -21 -21 -22
-16 -16 -16 -16 -15 -16 -16 -15 -16 -16 -16 -15 -15 -15 -16 -16 -16 -16 -16 -16 -16 -16 -16 -16 -16 -16 -16 -16 -16 -16 -17 -17 -17 -17 -17 -18 -18 -19 -18 -18 -19 -19 -20 -20 -21 -21 -21 -22 -22
Height
5774 5773 5774 5776 5781 5781 5785 5789 5789 5791 5799 5800 5803 5805 5812 5813 5817 5821 5820 5823 5825 5825 5826 5828 5829 5830 5830 5830 5830 5832 5833 5833 5832 5831 5831 5833 5834 5834 5834 5836 5838 5840 5839 5838 5837 5836 5836 5834 5834
5770 5770 5772 5774 5777 5779 5782 5785 5788 5790 5792 5798 5799 5802 5808 5810 5810 5814 5817 5819 5820 5821 5823 5824 5825 5825 5825 5826 5826 5827 5828 5828 5828 5828 5828 5829 5830 5830 5832 5833 5836 5837 5837 5837 5836 5836 5835 5833 5833
5768 5768 5770 5771 5774 5778 5779 5781 5784 5788 5791 5795 5797 5802 5803 5808 5809 5813 5812 5814 5816 5818 5820 5820 5820 5820 5820 5820 5820 5821 5823 5824 5824 5824 5825 5825 5825 5826 5828 5830 5832 5835 5835 5836 5835 5834 5832 5831 5831
5766 5768 5770 5771 5773 5776 5777 5779 5781 5785 5788 5792 5796 5797 5800 5803 5806 5806 5807 5810 5812 5813 5814 5814 5813 5814 5814 5814 5813 5815 5815 5817 5819 5820 5820 5820 5820 5822 5824 5828 5830 5832 5833 5835 5833 5831 5830 5828 5826
5765 5767 5768 5769 5773 5774 5774 5776 5779 5781 5784 5787 5790 5794 5797 5800 5803 5802 5804 5807 5808 5808 5807 5809 5809 5807 5808 5807 5806 5807 5808 5810 5813 5814 5815 5816 5817 5821 5824 5827 5828 5830 5831 5830 5829 5829 5827 5824 5824
5764 5766 5767 5768 5771 5772 5772 5774 5776 5779 5781 5784 5787 5790 5794 5797 5799 5800 5801 5802 5803 5803 5801 5804 5805 5804 5801 5800 5797 5797 5801 5805 5808 5809 5810 5812 5815 5819 5823 5826 5826 5826 5826 5827 5827 5825 5823 5821 5821
5763 5765 5766 5767 5769 5769 5771 5773 5776 5778 5780 5782 5785 5788 5792 5793 5794 5795 5797 5797 5800 5798 5797 5797 5798 5797 5796 5795 5797 5796 5799 5803 5804 5804 5806 5809 5812 5819 5822 5824 5823 5822 5823 5822 5822 5822 5819 5818 5816
5762 5765 5766 5766 5767 5768 5769 5773 5775 5777 5778 5780 5782 5784 5785 5788 5790 5791 5791 5793 5794 5795 5794 5795 5789 5787 5786 5792 5793 5793 5797 5798 5800 5802 5804 5806 5811 5817 5819 5821 5819 5819 5819 5818 5816 5816 5814 5812 5811
5761 5765 5764 5764 5765 5767 5767 5771 5774 5776 5778 5778 5779 5779 5781 5783 5785 5786 5786 5788 5789 5789 5791 5793 5789 5790 5787 5786 5791 5792 5794 5795 5796 5798 5803 5808 5811 5815 5817 5818 5818 5817 5816 5813 5812 5811 5811 5809 5808
5761 5761 5762 5763 5763 5764 5766 5770 5771 5773 5774 5775 5776 5776 5776 5777 5778 5780 5781 5782 5783 5784 5784 5785 5773 5780 5780 5785 5787 5787 5789 5791 5794 5798 5802 5806 5810 5814 5816 5816 5814 5813 5811 5809 5808 5806 5805 5804 5802
5760 5760 5761 5762 5762 5764 5766 5767 5767 5768 5771 5772 5772 5773 5772 5771 5773 5774 5774 5775 5776 5778 5782 5780 5782 5781 5778 5780 5782 5785 5788 5790 5795 5798 5803 5805 5808 5811 5811 5812 5811 5808 5807 5807 5805 5802 5800 5798 5797
5760 5760 5761 5763 5763 5765 5766 5767 5766 5767 5766 5766 5766 5767 5767 5767 5767 5768 5768 5758 5767 5770 5773 5773 5775 5778 5776 5779 5781 5785 5789 5792 5797 5799 5803 5805 5806 5808 5808 5807 5807 5805 5803 5801 5800 5798 5797 5794 5793
5759 5760 5761 5763 5764 5766 5767 5766 5765 5764 5762 5761 5760 5761 5761 5763 5761 5762 5763 5765 5762 5769 5766 5772 5774 5774 5776 5780 5781 5784 5790 5796 5797 5799 5801 5804 5804 5803 5804 5803 5802 5801 5799 5797 5797 5794 5792 5790 5788
5759 5759 5761 5762 5763 5763 5764 5764 5763 5760 5757 5756 5755 5754 5755 5754 5754 5759 5762 5763 5765 5768 5769 5770 5770 5771 5776 5779 5781 5786 5791 5793 5795 5798 5798 5799 5800 5800 5800 5798 5798 5797 5795 5794 5792 5789 5786 5784 5781
5756 5759 5759 5761 5761 5762 5762 5762 5760 5759 5756 5753 5751 5752 5753 5750 5751 5756 5758 5761 5763 5766 5769 5772 5774 5778 5779 5783 5785 5788 5792 5793 5793 5793 5796 5797 5796 5796 5794 5795 5795 5793 5792 5789 5785 5782 5780 5776 5773
5755 5757 5758 5758 5758 5759 5760 5761 5761 5759 5756 5753 5752 5748 5748 5749 5751 5753 5757 5762 5764 5769 5774 5775 5777 5781 5784 5785 5786 5788 5789 5791 5791 5792 5792 5793 5793 5792 5791 5793 5791 5788 5785 5781 5778 5776 5772 5768 5765
5753 5756 5757 5757 5758 5759 5758 5758 5759 5760 5759 5756 5755 5752 5751 5755 5755 5757 5761 5766 5770 5773 5775 5778 5779 5779 5781 5783 5783 5784 5788 5787 5788 5788 5790 5790 5790 5788 5789 5787 5785 5783 5778 5775 5772 5768 5764 5759 5755
5751 5752 5754 5756 5758 5757 5758 5757 5758 5760 5760 5759 5759 5760 5758 5757 5759 5761 5764 5767 5770 5772 5775 5777 5778 5778 5779 5780 5780 5782 5784 5784 5784 5786 5786 5788 5786 5785 5783 5781 5779 5775 5771 5767 5763 5758 5754 5750 5746
5750 5750 5751 5754 5757 5758 5758 5759 5758 5759 5760 5760 5761 5761 5763 5763 5763 5764 5767 5769 5771 5772 5773 5775 5775 5775 5777 5778 5778 5779 5779 5781 5783 5783 5783 5782 5780 5780 5777 5774 5771 5767 5762 5758 5754 5750 5745 5740 5735
5749 5750 5751 5753 5756 5757 5757 5760 5760 5760 5760 5761 5762 5763 5762 5764 5765 5766 5767 5768 5770 5771 5773 5774 5774 5775 5775 5775 5775 5776 5777 5778 5779 5780 5778 5776 5775 5773 5769 5767 5763 5759 5754 5749 5745 5741 5736 5730 5725
5750 5751 5753 5754 5755 5756 5757 5759 5761 5761 5762 5762 5763 5763 5763 5764 5765 5765 5765 5766 5767 5768 5769 5769 5770 5773 5773 5771 5772 5774 5774 5776 5775 5774 5772 5770 5769 5766 5762 5759 5755 5750 5745 5741 5736 5731 5725 5719 5712
5752 5753 5755 5755 5756 5757 5757 5759 5760 5761 5763 5763 5763 5763 5763 5763 5763 5764 5766 5766 5767 5767 5767 5767 5768 5769 5769 5768 5770 5770 5770 5770 5770 5768 5766 5764 5762 5758 5754 5749 5745 5740 5735 5731 5726 5720 5714 5706 5699
5754 5754 5755 5754 5755 5757 5755 5757 5759 5761 5762 5761 5762 5762 5762 5762 5762 5763 5763 5764 5764 5764 5765 5765 5765 5766 5766 5766 5766 5766 5764 5764 5763 5762 5761 5758 5754 5748 5743 5740 5735 5730 5725 5721 5714 5706 5700 5694 5688
5751 5752 5753 5753 5754 5755 5754 5755 5757 5758 5758 5758 5759 5759 5759 5759 5760 5760 5761 5761 5761 5762 5761 5763 5763 5763 5763 5762 5761 5760 5759 5758 5757 5756 5753 5749 5743 5738 5735 5730 5725 5719 5712 5706 5700 5694 5688 5682 5676
5748 5750 5750 5751 5751 5753 5752 5753 5755 5754 5755 5756 5757 5757 5757 5756 5756 5756 5757 5758 5758 5758 5760 5759 5759 5759 5757 5757 5756 5754 5754 5753 5750 5748 5744 5739 5735 5730 5725 5719 5712 5706 5698 5693 5689 5682 5676 5669 5661
5746 5747 5748 5747 5749 5750 5749 5749 5753 5751 5751 5751 5753 5755 5756 5756 5755 5754 5755 5755 5755 5755 5755 5753 5755 5754 5753 5751 5750 5750 5748 5745 5740 5738 5734 5730 5726 5721 5714 5707 5702 5694 5690 5683 5677 5670 5661 5653 5646
5743 5744 5745 5745 5746 5745 5746 5747 5749 5748 5748 5749 5750 5751 5751 5753 5753 5752 5752 5752 5751 5752 5750 5750 5749 5748 5747 5747 5745 5743 5740 5736 5733 5729 5725 5722 5717 5711 5704 5698 5693 5686 5679 5672 5663 5655 5648 5640 5632
5738 5740 5741 5741 5741 5740 5741 5741 5743 5744 5746 5746 5746 5746 5746 5748 5748 5747 5748 5748 5747 5747 5747 5745 5743 5742 5741 5739 5737 5734 5731 5728 5723 5719 5717 5712 5704 5699 5693 5688 5682 5675 5666 5658 5650 5642 5634 5625 5617
5734 5734 5736 5736 5737 5736 5736 5738 5738 5740 5741 5742 5742 5742 5741 5741 5741 5742 5742 5742 5742 5741 5739 5737 5735 5734 5732 5730 5728 5726 5723 5718 5714 5710 5705 5700 5694 5689 5683 5677 5669 5661 5654 5645 5637 5628 5619 5610 5601
5730 5731 5732 5731 5734 5732 5732 5735 5735 5737 5737 5736 5737 5736 5736 5736 5736 5736 5736 5735 5733 5731 5730 5727 5726 5725 5724 5722 5719 5715 5711 5708 5705 5702 5698 5690 5684 5677 5669 5662 5655 5648 5640 5631 5622 5614 5605 5596 5585
Wind_Speed
25 21 23 24 25 30 33 29 34 30 38 30 31 33 29 31 29 32 32 29 31 26 21 19 23 28 30 30 30 31 29 32 30 29 31 27 20 10 8 9 9 11 10 10 10 12 13 15 17
21 19 19 21 22 19 23 29 29 38 29 35 40 27 28 30 26 25 21 24 24 20 18 19 21 26 30 34 33 32 27 27 29 32 33 28 20 9 10 10 10 10 10 10 11 13 15 17 18
19 16 15 18 14 12 14 23 34 39 36 29 29 33 23 18 20 21 23 27 27 25 24 28 29 31 30 28 33 31 29 30 29 35 36 32 21 9 11 12 13 10 11 12 14 16 18 21 23
14 12 13 13 8 12 15 19 27 32 32 31 30 27 27 25 22 23 25 21 20 24 29 30 32 32 28 30 33 30 29 31 29 35 34 29 15 14 14 14 13 11 12 15 15 17 20 22 24
10 11 11 9 12 15 19 21 22 25 29 31 32 28 28 24 26 25 25 23 24 27 31 28 27 29 26 29 35 32 30 30 33 37 35 31 13 15 15 14 14 13 14 17 18 19 22 23 25
9 11 8 12 16 17 20 24 25 25 28 28 28 30 31 29 27 24 29 28 26 27 28 30 28 30 32 25 28 39 36 36 38 38 31 19 15 17 15 15 15 14 16 17 19 23 25 24 26
10 10 13 15 17 19 21 21 24 20 25 25 25 21 21 25 25 26 26 25 22 21 23 26 30 29 30 26 37 38 37 32 36 36 33 17 20 14 15 14 14 17 18 21 22 21 22 25 29
11 11 13 16 20 18 20 15 18 22 22 26 22 23 26 24 22 23 25 23 22 23 23 20 30 33 47 29 32 44 37 34 35 28 21 18 14 14 12 17 14 17 21 23 20 24 28 29 29
10 12 14 18 18 21 23 17 9 20 24 21 23 26 21 23 25 22 25 27 31 30 25 26 35 44 33 23 31 36 32 34 31 23 17 14 14 14 14 14 17 21 21 20 24 27 30 27 27
10 16 17 18 19 20 19 16 13 15 23 27 26 23 23 25 23 25 27 29 28 31 28 27 43 42 38 33 35 39 38 26 18 18 15 13 11 13 15 18 18 20 22 22 25 28 23 27 28
13 15 18 18 21 20 18 18 22 21 16 22 27 21 25 23 25 27 29 29 29 31 31 38 32 44 30 27 28 39 27 18 16 15 16 14 12 16 17 20 21 20 23 26 28 23 24 24 27
14 10 12 18 21 22 19 18 20 24 23 26 28 29 26 24 26 27 26 17 20 34 19 26 37 34 25 23 23 16 20 20 12 7 8 11 13 17 19 19 21 22 23 21 21 21 24 26 28
14 9 9 10 15 19 19 19 23 26 29 30 30 27 29 26 26 20 17 19 23 24 23 23 29 28 24 22 20 18 16 12 10 11 13 16 15 13 18 20 20 17 17 19 23 24 25 27 29
13 14 8 7 11 15 18 18 17 19 19 15 15 14 16 18 24 22 14 16 18 20 15 18 22 21 17 18 19 16 15 15 13 11 11 13 15 17 18 15 15 18 20 22 24 26 28 30 33
15 17 14 15 14 12 13 17 10 6 10 9 10 15 12 31 22 18 18 14 15 20 16 15 15 14 15 15 16 16 13 10 8 6 11 13 15 12 11 14 18 19 21 24 27 30 33 35 38
13 14 15 17 18 17 14 3 9 8 11 11 6 15 14 16 17 17 19 22 21 17 17 17 17 16 12 12 9 10 14 10 7 9 11 9 8 10 13 17 19 21 26 29 33 36 38 40 42
11 9 12 20 17 14 11 12 10 11 11 14 16 15 20 19 20 24 21 18 20 19 17 15 15 17 18 18 15 12 10 8 8 8 7 8 12 13 17 19 24 28 30 34 37 40 41 43 45
15 13 7 9 17 12 13 11 9 11 11 12 14 14 15 15 14 14 14 16 15 16 18 16 15 14 11 10 9 9 8 7 6 7 9 13 15 17 20 25 29 32 35 38 41 43 45 46 48
13 12 5 14 14 14 12 11 9 9 8 8 8 10 13 15 12 11 10 8 8 8 8 8 9 8 8 8 7 7 7 7 9 12 14 16 19 23 27 30 34 37 40 43 46 47 48 49 50
6 9 11 13 19 15 12 12 7 5 9 7 7 8 9 7 7 9 10 10 9 9 10 11 9 9 9 10 8 7 8 9 12 15 18 21 24 28 31 35 38 40 44 47 49 50 51 52 54
13 14 14 16 15 15 13 8 7 6 9 9 6 4 7 9 9 7 6 6 6 7 8 8 9 10 9 8 8 9 10 12 15 18 22 26 30 33 36 39 41 44 47 49 50 53 55 55 56
8 9 12 12 11 8 9 4 4 7 13 6 4 7 8 6 4 8 10 10 11 12 11 11 12 9 8 10 11 12 13 16 19 24 27 31 35 38 40 44 46 48 50 48 50 52 54 56 59
8 6 11 12 12 12 6 7 7 8 9 10 7 10 12 11 9 8 10 8 13 14 12 11 12 12 11 13 15 16 18 20 24 28 32 36 39 42 46 48 50 51 51 50 57 59 61 60 60
10 10 11 14 18 14 8 5 3 3 6 11 14 13 17 16 15 15 15 14 15 14 12 11 10 13 12 14 19 20 22 25 31 32 36 40 43 46 49 50 49 50 52 54 60 65 67 65 64
15 12 13 14 16 15 14 14 7 11 8 7 9 6 18 17 19 20 18 16 15 13 13 14 12 14 14 16 19 23 27 32 33 36 40 44 47 49 49 52 51 52 58 60 64 68 69 66 66
23 18 14 17 17 17 19 19 12 17 18 13 9 10 13 15 19 18 17 15 15 16 18 14 10 14 16 20 24 26 32 34 38 43 45 48 49 48 50 51 47 57 61 65 68 68 68 69 69
22 20 20 21 21 22 20 22 17 13 16 16 15 14 14 13 18 16 14 14 14 16 19 11 14 18 21 25 28 33 36 38 44 47 47 45 48 49 50 45 48 60 66 65 67 68 70 70 72
25 24 23 21 23 22 19 19 19 15 12 16 19 19 18 20 18 15 16 16 17 19 18 19 21 24 27 31 35 38 40 45 48 48 46 49 53 53 53 52 56 63 63 64 68 69 71 72 73
27 26 23 24 24 23 15 12 18 15 18 18 21 22 23 23 22 20 20 20 20 22 24 22 26 30 32 35 40 43 47 47 46 50 52 54 56 59 59 57 59 62 64 66 68 70 71 73 76
34 32 27 27 24 22 20 16 14 17 18 19 20 22 22 23 23 24 23 24 25 27 25 29 33 35 38 41 43 45 44 47 49 50 48 43 57 68 62 63 64 64 66 68 69 71 73 76 79
Wind_Direction
275 263 257 240 228 223 225 231 240 244 226 235 213 228 226 219 223 228 232 231 238 252 259 272 278 276 273 277 282 286 298 294 286 283 279 279 284 265 245 243 262 278 285 296 300 303 306 308 307
275 260 247 237 232 233 229 230 233 237 237 236 247 254 226 233 247 233 242 248 250 258 258 268 287 289 274 270 274 282 288 288 281 276 271 274 269 238 227 237 261 277 286 298 310 314 312 312 314
277 253 234 236 234 232 222 228 228 233 246 240 261 261 254 257 234 239 245 255 254 260 260 264 276 283 280 281 272 272 273 272 277 269 271 271 263 217 221 242 260 279 294 304 306 308 311 314 318
273 243 231 231 210 204 202 221 226 231 236 240 244 248 250 248 243 242 243 253 255 258 263 266 274 283 278 276 271 269 267 262 273 257 267 260 222 207 213 235 261 283 291 292 300 300 307 314 316
256 224 226 197 198 192 199 210 217 220 225 228 233 235 242 252 256 256 254 257 260 265 268 257 273 282 274 276 267 270 266 264 268 250 256 253 215 214 213 243 251 269 279 291 297 303 308 312 314
229 217 187 187 196 208 208 210 209 217 223 223 229 236 240 244 249 249 257 257 255 271 274 258 268 274 272 277 284 269 264 253 274 247 245 223 198 213 222 230 259 276 287 285 294 305 308 313 309
227 205 192 192 208 218 220 221 217 223 224 229 231 238 243 242 247 244 247 255 265 268 272 271 275 277 254 279 260 256 250 264 254 238 234 190 202 198 217 248 260 268 279 293 305 301 303 307 308
224 194 211 213 218 229 232 230 241 231 230 232 232 239 242 251 254 252 252 258 257 267 263 280 271 271 260 248 252 244 243 250 240 228 216 196 170 216 232 240 254 270 283 291 294 295 301 306 303
234 194 230 227 226 234 230 233 263 247 236 240 237 242 248 250 257 261 257 251 259 252 250 249 244 253 221 247 248 245 249 244 223 223 172 161 192 220 242 262 266 271 280 288 294 297 299 303 301
216 205 227 233 236 237 242 239 243 251 245 247 252 259 258 249 262 256 264 248 256 250 244 253 241 221 223 236 234 243 242 221 184 154 162 174 200 219 249 261 272 279 282 285 294 305 301 300 308
207 224 234 238 248 250 257 251 245 250 278 262 255 254 256 258 259 257 266 250 253 243 236 247 236 235 219 224 253 246 237 200 168 149 161 171 216 252 260 265 269 285 294 297 299 302 308 314 313
213 255 262 250 255 263 272 278 280 273 277 275 265 261 264 268 271 262 264 238 226 241 250 241 228 227 223 240 218 186 139 118 109 143 197 228 238 247 259 273 284 290 294 304 309 311 309 310 307
217 257 294 297 274 273 281 281 285 274 270 273 270 271 262 263 261 258 241 235 224 226 224 239 230 217 218 218 144 116 120 147 173 198 211 229 243 270 286 287 291 296 302 304 303 306 308 307 307
227 248 257 275 267 263 276 286 293 289 287 290 270 256 253 235 235 246 215 208 211 235 248 199 163 162 149 121 125 144 171 183 194 214 237 252 269 279 281 287 297 301 302 301 305 306 306 306 306
249 249 246 254 262 266 273 296 286 304 321 333 288 229 230 253 217 196 210 217 216 212 158 119 116 126 136 146 155 172 181 201 217 262 274 270 274 281 294 297 293 294 297 301 304 306 305 306 307
259 258 254 262 266 269 283 214 49 56 33 30 31 199 146 151 145 141 115 111 119 106 134 144 149 158 161 165 166 189 208 216 247 258 263 267 265 280 285 286 291 295 302 306 306 305 306 306 305
250 297 261 265 284 285 169 114 106 101 88 76 66 56 86 105 94 99 111 125 142 149 159 168 179 178 190 193 200 203 223 240 252 255 247 265 275 283 284 291 297 302 305 305 306 306 306 305 305
275 288 282 263 260 226 151 130 116 126 121 95 106 112 113 110 113 122 136 156 163 173 183 191 200 201 203 208 202 213 237 246 237 245 261 271 279 286 293 299 302 304 305 306 306 307 306 305 306
258 283 208 213 228 176 160 144 128 135 137 113 99 114 123 136 138 135 149 159 163 161 173 194 206 209 216 216 222 232 237 219 241 260 272 279 292 297 299 302 303 305 307 306 307 307 305 305 304
175 159 152 175 189 188 189 177 159 140 144 118 111 121 128 133 129 144 152 159 174 185 192 202 217 225 218 220 229 221 233 250 263 276 286 295 298 300 304 305 307 308 306 306 307 307 306 304 303
160 160 179 191 193 203 208 208 154 161 149 144 133 150 135 147 151 163 184 200 207 225 231 226 228 228 240 230 233 237 245 268 283 291 297 302 304 304 304 305 306 305 305 307 308 309 307 305 305
216 215 201 205 210 213 215 222 156 147 161 148 173 184 189 193 205 200 209 228 237 241 248 257 260 253 224 235 251 255 266 284 294 298 303 306 304 304 306 307 306 305 305 308 308 309 310 310 310
225 225 233 246 248 230 217 220 201 180 194 226 226 220 223 211 212 232 258 236 257 252 252 249 244 236 231 241 269 276 284 289 299 303 306 305 304 307 308 306 305 305 299 298 310 319 314 310 307
221 231 256 256 263 271 272 223 190 237 247 201 198 218 224 226 221 234 242 242 244 250 253 236 234 236 243 261 280 287 293 300 302 302 306 305 307 306 305 305 304 307 306 305 308 311 312 310 310
233 243 251 251 253 255 269 280 273 295 259 242 229 250 219 226 224 229 238 245 244 236 233 234 242 256 271 279 288 297 300 300 296 306 305 306 304 304 303 307 313 314 312 307 307 307 309 310 309
237 250 258 259 267 277 270 263 282 281 259 276 278 259 230 237 233 223 229 240 241 246 251 215 251 271 284 291 291 295 297 299 303 306 305 303 304 303 311 311 317 308 308 303 303 307 309 310 310
233 250 260 265 273 281 275 270 270 265 251 247 274 278 276 241 229 223 228 244 251 257 260 272 268 278 285 291 296 298 299 297 301 300 302 300 303 307 312 312 296 300 304 306 308 309 308 309 309
237 240 247 256 271 280 273 270 253 258 263 253 263 273 273 259 236 233 238 246 257 264 263 274 282 288 292 295 296 298 297 298 299 299 294 301 314 314 313 307 292 301 306 307 307 308 308 308 308
237 241 251 257 262 274 285 281 251 261 260 259 261 261 263 262 259 257 256 259 266 275 275 282 289 289 292 294 296 296 296 296 295 298 301 303 310 309 308 303 304 306 308 307 307 308 308 308 307
252 251 253 259 265 271 276 268 275 270 274 264 263 260 258 256 258 256 269 275 279 285 285 290 290 291 293 294 297 301 301 296 290 290 301 299 307 306 306 306 308 308 307 307 308 308 307 306 307